Weather Roundup
Issued by NWS Chicago, IL

Home | Current Version | Previous Version | Graphics & Text | Print | Product List | Glossary On
Versions: 1 2 3 4 5 6 7 8 9 10 11 12 13 14 15 16 17 18 19 20 21 22 23 24 25 26 27 28 29 30 31 32 33 34 35 36 37 38 39 40 41 42 43 44 45 46 47 48 49 50
000
NZUS59 KLOT 201200
HRRLOT

CHICAGO AREA WEATHER ROUNDUP
NATIONAL WEATHER SERVICE CHICAGO/ROMEOVILLE IL
700 AM CDT SAT SEP 20 2014

NOTE: "FAIR" INDICATES FEW OR NO CLOUDS BELOW 12,000 FEET WITH NO
SIGNIFICANT WEATHER AND/OR OBSTRUCTIONS TO VISIBILITY.

* THESE STATIONS ARE NOT UNDER NWS QUALITY CONTROL. THEY ALSO MAY NOT
  REPORT WEATHER SUCH AS PRECIPITATION OR FOG.

ILZ005-006-012>014-019>023-201300-
NORTHEAST ILLINOIS

CITY           SKY/WX    TMP DP  RH WIND       PRES   REMARKS
OHARE          MOCLDY    63  54  72 SW14      29.93S
6HR MIN TEMP:  63; 6HR MAX TEMP:  65;

MIDWAY         CLOUDY    63  55  75 SW12      29.93S
6HR MIN TEMP:  63; 6HR MAX TEMP:  66;

AURORA         MOCLDY    56  52  86 CALM      29.95S FOG
6HR MIN TEMP:  54; 6HR MAX TEMP:  59;

WAUKEGAN       CLOUDY    63  55  75 SW15      29.87F
6HR MIN TEMP:  63; 6HR MAX TEMP:  65;

DUPAGE AIRPORT MOCLDY    59  54  83 S8        29.93F
6HR MIN TEMP:  58; 6HR MAX TEMP:  61;

WHEELING       MOCLDY    64  54  69 SW9       29.93F
6HR MIN TEMP:  64; 6HR MAX TEMP:  67;

NORTHERLY IS     N/A     64  53  67 S8          N/A
$$

WIZ051-052-058>065-066-070>072-201300-
SOUTHEAST WISCONSIN

CITY           SKY/WX    TMP DP  RH WIND       PRES   REMARKS
MILWAUKEE      CLOUDY    64  57  78 SW17      29.80F
6HR MIN TEMP:  64; 6HR MAX TEMP:  66; 6HR PCP: TRACE;

KENOSHA*       CLOUDY    64  57  78 SW13G22   29.85F
RACINE*        CLOUDY    64  57  78 SW15G22   29.84F
WAUKESHA       CLEAR     61  57  88 S13       29.82F
$$

INZ001>003-010>013-019-020-201300-
NORTHWEST INDIANA

CITY           SKY/WX    TMP DP  RH WIND       PRES   REMARKS
GARY*          MOCLDY    63  54  72 MISG      29.96R
MICHIGAN CITY* NOT AVBL
RENSSELAER*    NOT AVBL
VALPARAISO     PTCLDY    57  52  83 SW8       30.00R
$$

LMZ740>746-201300-
SOUTHERN LAKE MICHIGAN

STATION/POSITION TIME  SKY/WX   TEMP WIND        PRES    VSBY
                                AIR  DIR/SP/G
                 (UTC)          (F)  (DEG/KT/KT) (MB)    (MI)
HARRISON CRIB    1100            66  220/ 20/ 28   N/A
BURNHAM HARBOR   1200            64  190/  4/ 13   N/A
CALUMET HARBOR   1100            64  210/  9/ 14 1012.9R
BURNS HARBOR     NOT AVBL
MICHIGAN CITY    1100            62  160/ 16/ 22   N/A
$$

ABBREVIATIONS USED IN REMARKS
   TC - TEMPERATURE IN CELSIUS
  WCI - WIND CHILL INDEX
   HX - HEAT INDEX
  VSB - VISIBILITY
$$


USA.gov is the U.S. government's official web portal to all federal, state and local government web resources and services.